sat.trackr.live / text

‹ back to catalog

ONEWEB-0647

NORAD 56079 · 2023-043AK

PAYLOAD ACTIVE UNKNOWN

§ Identity

Operator
Country
UK
Launch date
2023-03-26
Launch site
SRILR
Launch vehicle
Mass (kg)
RCS (m²)

Purposes: comms

External: N2YO · Heavens-Above · Gunter

§ Orbital elements

Epoch: 2026-09-20T04:43:23.532096Z

Period
109.46 min
Inclination
87.8985°
Eccentricity
0.0002197
Mean motion
13.15547839 rev/d
Perigee alt
1,200.1 km
Apogee alt
1,203.4 km
Semi-major
7,579.9 km
B*
-2.9037e-4
RAAN
240.2804°
Arg perigee
83.2003°
Mean anomaly
276.9377°
Rev number
16,891

§ Raw data

ONEWEB-06471 56079U 23043AK  26263.19680014 -.00000096  00000+0 -29037-3 0  99972 56079  87.8985 240.2804 0002197  83.2003 276.9377 13.15547839168911

JSON: /api/v1/satellites/56079 · /tle

For live sub-satellite position, see the globe view (requires WebGL).

§ Visibility from observer

Set your observer location to see the next 7 days of passes ≥ 10°. The values pass through the URL so the page stays shareable.

No JS? Fill the form by hand. The geolocation button needs JavaScript.